[[{"header":{"parameterUnit":"m.s-1","parameterCategory":1,"la1":30.2991,"la2":30.254,"lo1":-89.0895,"lo2":-89.0444,"dy":0.0017,"dx":0.0017,"nx":28,"ny":28,"refTime":"2025-08-18T21:00:00:Z","depth":0,"parameterNumber":2,"parameterNumberName":"U-component_of_WINDS"},"data":[0,0,0,0,0,0,0,0,0,0,0,0,0,0,0,0,0,0,0,0,0,0,0,0,0,0,0,0,0,0,0,0,0,0,0,0,0,0,0,0,0,0,0,0,0,0,0,0,0,0,0,0,0,0,0,0,0,0,-1.1709,-1.1708,0,-1.1638,-1.1638,-1.1637,-1.1629,-1.1629,-1.163,-1.1631,-1.1556,-1.1554,-1.1551,0,0,0,0,0,0,0,0,0,0,0,0,0,-1.1835,-1.1833,-1.1709,-1.1708,-1.1707,-1.1638,-1.1637,-1.1637,-1.1628,-1.1629,-1.163,-1.1631,-1.1557,-1.1554,-1.1551,0,0,0,0,0,0,0,0,0,0,0,0,0,-1.1774,-1.1832,-1.1709,-1.1695,-1.1693,-1.1639,-1.1637,-1.1636,-1.1628,-1.1629,-1.163,-1.1631,-1.1558,-1.1554,-1.1551,-1.1505,0,0,-1.1539,-1.1537,0,0,0,0,0,0,0,0,-1.1777,-1.1769,-1.1698,-1.1695,-1.1693,-1.1643,-1.1655,-1.1592,-1.1628,-1.1653,-1.1631,-1.1632,-1.1584,-1.1578,-1.1563,-1.1502,-1.1498,-1.1538,-1.1536,-1.1534,-1.1533,0,0,0,0,0,0,0,-1.1782,-1.1772,-1.1681,-1.1697,-1.1694,-1.1692,-1.1684,-1.1643,-1.1613,-1.1651,-1.165,-1.1642,-1.1583,-1.1567,-1.1561,-1.1497,-1.1538,-1.1535,-1.1532,-1.1531,-1.1398,-1.1397,0,0,0,0,0,0,-1.1789,-1.1776,-1.1683,-1.1679,-1.1739,-1.1688,-1.168,-1.1658,-1.1614,-1.1608,-1.1641,-1.1642,-1.1573,-1.1566,-1.1558,-1.1503,-1.1534,-1.153,-1.1528,-1.1399,-1.1397,-1.1396,0,0,0,0,0,0,-1.1791,-1.178,-1.1686,-1.1727,-1.1715,-1.1685,-1.1661,-1.1656,-1.164,-1.1607,-1.1601,-1.1629,-1.1573,-1.1564,-1.1519,-1.1501,-1.1529,-1.1525,-1.14,-1.1398,-1.1397,-1.1392,0,0,0,0,0,0,-1.1795,-1.1781,-1.1764,-1.1727,-1.1713,-1.1648,-1.166,-1.1654,-1.1633,-1.1633,-1.1594,-1.1589,-1.1573,-1.1525,-1.1515,-1.1496,-1.1522,-1.1402,-1.1399,-1.1397,-1.1394,-1.1391,-1.1388,0,0,0,0,0,-1.18,-1.1764,-1.1763,-1.1752,-1.169,-1.1647,-1.1639,-1.1622,-1.1632,-1.1614,-1.1593,-1.159,-1.1504,-1.152,-1.1509,-1.1488,-1.1403,-1.14,-1.1398,-1.1395,-1.1391,-1.1388,0,0,0,0,0,0,-1.1799,-1.1759,-1.1757,-1.1709,-1.1682,-1.1645,-1.1622,-1.1618,-1.1587,-1.1588,-1.1569,-1.156,-1.1517,-1.1498,-1.1517,-1.1443,-1.1454,-1.145,-1.1457,-1.1453,-1.145,-1.1455,-1.1519,0,0,0,0,0,-1.1793,-1.1762,-1.1729,-1.169,-1.1676,-1.1652,-1.1632,-1.1622,-1.1593,-1.1581,-1.1556,-1.1527,-1.1494,-1.1472,-1.144,-1.1392,-1.1384,-1.1372,-1.1369,-1.1367,-1.1362,-1.1337,-1.1332,-1.1387,-1.1388,-1.1388,0,0,-1.1781,-1.1756,-1.1737,-1.1689,-1.1666,-1.1634,-1.1642,-1.1607,-1.1583,-1.1575,-1.1532,-1.1513,-1.1479,-1.1433,-1.1412,-1.1416,-1.1346,-1.1363,-1.1362,-1.1359,-1.1334,-1.1329,-1.1324,-1.1386,-1.1386,-1.1386,0,0,-1.1742,-1.172,-1.1686,-1.1663,-1.163,-1.1614,-1.1606,-1.1571,-1.1559,-1.1515,-1.1509,-1.1481,-1.1423,-1.14,-1.1381,-1.1336,-1.1333,-1.1326,-1.131,-1.1286,-1.1281,-1.1277,-1.1262,-1.1257,-1.1322,-1.1322,-1.1322,0,-1.1731,-1.1683,-1.1668,-1.1634,-1.1614,-1.1607,-1.1572,-1.1551,-1.1508,-1.1494,-1.1501,-1.143,-1.1407,-1.1356,-1.1346,-1.133,-1.132,-1.133,-1.1283,-1.1279,-1.1275,-1.1261,-1.1255,-1.1322,-1.1322,-1.1322,-1.1322,0,-1.1671,-1.1638,-1.1614,-1.1575,-1.1552,-1.1518,-1.1498,-1.1476,-1.1469,-1.1453,-1.141,-1.1382,-1.1345,-1.1332,-1.1324,-1.128,-1.1285,-1.1287,-1.1298,-1.127,-1.1256,-1.125,-1.1321,-1.1321,-1.1321,-1.1321,0,0,-1.1628,-1.1583,-1.1575,-1.1557,-1.1521,-1.1495,-1.1461,-1.1426,-1.1408,-1.1379,-1.1351,-1.1304,-1.1307,-1.1285,-1.1274,-1.1253,-1.1221,-1.1259,-1.1258,-1.1253,-1.1173,-1.1172,-1.1165,-1.1219,-1.1218,-1.1217,-1.1176,0,-1.1586,-1.1526,-1.1513,-1.1461,-1.1431,-1.1425,-1.1396,-1.137,-1.1355,-1.1327,-1.131,-1.1277,-1.1283,-1.127,-1.1249,-1.123,-1.1205,-1.1232,-1.1193,-1.1191,-1.1201,-1.1158,-1.1155,-1.1118,-1.1171,-1.117,-1.1169,0,-1.1528,-1.15,-1.1446,-1.1415,-1.1402,-1.1376,-1.1343,-1.1317,-1.1288,-1.1279,-1.1256,-1.1248,-1.1213,-1.1227,-1.1179,-1.1198,-1.1181,-1.1169,-1.1168,-1.1163,-1.1178,-1.1153,-1.1106,-1.11,-1.116,-1.1161,-1.1161,0,-1.1504,-1.1452,-1.1413,-1.1398,-1.1361,-1.1344,-1.1327,-1.13,-1.128,-1.1252,-1.1239,-1.1207,-1.1189,-1.1164,-1.1148,-1.116,-1.1102,-1.1114,-1.1094,-1.1094,-1.1081,-1.1082,-1.1031,-1.107,-1.107,-1.107,-1.1071,0,-1.1458,-1.1425,-1.1402,-1.1378,-1.1341,-1.1327,-1.1291,-1.1275,-1.1251,-1.1224,-1.1217,-1.1192,-1.1172,-1.1145,-1.1132,-1.1095,-1.1087,-1.1079,-1.1076,-1.1079,-1.1081,-1.1068,-1.107,-1.1069,-1.1069,-1.107,-1.107,0,-1.1423,-1.1406,-1.1364,-1.1334,-1.1325,-1.13,-1.1274,-1.1251,-1.1236,-1.1202,-1.1193,-1.117,-1.1138,-1.112,-1.1079,-1.107,-1.1029,-1.1027,-1.1039,-1.1038,-1.1019,-1.1021,-1.0958,-1.095,-1.0994,-1.0994,-1.0993,0,-1.1395,-1.137,-1.1338,-1.132,-1.1304,-1.1274,-1.1255,-1.124,-1.122,-1.1187,-1.1168,-1.1136,-1.1109,-1.1057,-1.1036,-1.1005,-1.1003,-1.0983,-1.0998,-1.1003,-1.1004,-1.1005,-1.1003,-1.098,-1.098,-1.098,-1.0979,0,-1.1347,-1.1341,-1.1313,-1.1283,-1.126,-1.1236,-1.1211,-1.1197,-1.1178,-1.1156,-1.1123,-1.1103,-1.1062,-1.103,-1.0998,-1.0981,-1.0977,-1.0975,-1.0969,-1.0972,-1.098,-1.0977,-1.1032,-1.0976,-1.0977,-1.0977,-1.0977,-1.0977,-1.1315,-1.1293,-1.1268,-1.1238,-1.1218,-1.1196,-1.1174,-1.1157,-1.113,-1.1096,-1.1089,-1.1055,-1.1029,-1.0986,-1.0968,-1.0942,-1.0945,-1.0936,-1.0934,-1.0932,-1.0932,-1.0985,-1.0936,-1.0936,-1.0936,-1.0936,-1.0936,0,-1.1267,-1.1251,-1.1224,-1.1191,-1.1168,-1.1168,-1.1141,-1.1122,-1.1092,-1.1069,-1.1043,-1.1006,-1.0976,-1.0954,-1.0923,-1.0906,-1.0904,-1.0899,-1.09,-1.0896,-1.093,-1.0938,-1.0901,-1.0901,-1.0901,-1.0901,-1.0901,-1.0901,-1.124,-1.1203,-1.1194,-1.1149,-1.1133,-1.11,-1.1085,-1.1065,-1.1046,-1.1006,-1.0981,-1.0968,-1.0945,-1.0913,-1.0885,-1.088,-1.0869,-1.0864,-1.0858,-1.089,-1.0894,-1.0897,-1.0905,-1.0862,-1.0862,-1.0827,-1.0827,-1.0827]},{"header":{"parameterUnit":"m.s-1","parameterCategory":1,"la1":30.2991,"la2":30.254,"lo1":-89.0895,"lo2":-89.0444,"dy":0.0017,"dx":0.0017,"nx":28,"ny":28,"refTime":"2025-08-18T21:00:00:Z","depth":0,"parameterNumber":3,"parameterNumberName":"V-component_of_WINDS"},"data":[0,0,0,0,0,0,0,0,0,0,0,0,0,0,0,0,0,0,0,0,0,0,0,0,0,0,0,0,0,0,0,0,0,0,0,0,0,0,0,0,0,0,0,0,0,0,0,0,0,0,0,0,0,0,0,0,0,0,1.0137,1.0137,0,1.0105,1.0105,1.0105,1.0107,1.0107,1.0108,1.0108,1.0073,1.0072,1.007,0,0,0,0,0,0,0,0,0,0,0,0,0,1.0195,1.0194,1.0137,1.0136,1.0136,1.0105,1.0105,1.0105,1.0107,1.0107,1.0108,1.0108,1.0073,1.0072,1.007,0,0,0,0,0,0,0,0,0,0,0,0,0,1.0167,1.0194,1.0137,1.0133,1.0133,1.0105,1.0105,1.0104,1.0106,1.0107,1.0108,1.0109,1.0074,1.0072,1.007,1.0043,0,0,1.0063,1.0063,0,0,0,0,0,0,0,0,1.0169,1.0165,1.0134,1.0134,1.0133,1.0111,1.0113,1.0084,1.0106,1.0116,1.0108,1.0109,1.0085,1.0082,1.0074,1.0041,1.004,1.0063,1.0062,1.0061,1.0061,0,0,0,0,0,0,0,1.0171,1.0166,1.0124,1.0134,1.0133,1.0132,1.0129,1.0107,1.0097,1.0116,1.0116,1.0112,1.0084,1.0076,1.0073,1.0039,1.0063,1.0062,1.006,1.0059,0.998,0.9979,0,0,0,0,0,0,1.0174,1.0168,1.0125,1.0123,1.0153,1.0131,1.0127,1.0117,1.0097,1.0095,1.0111,1.0112,1.0079,1.0076,1.0072,1.0037,1.0061,1.0059,1.0058,0.9981,0.998,0.9979,0,0,0,0,0,0,1.0175,1.017,1.0127,1.0146,1.014,1.0129,1.0118,1.0116,1.0108,1.0094,1.0092,1.0105,1.008,1.0075,1.005,1.0036,1.0058,1.0056,0.9982,0.998,0.9979,0.9968,0,0,0,0,0,0,1.0177,1.017,1.0161,1.0146,1.0139,1.0106,1.0117,1.0115,1.0105,1.0105,1.0088,1.0085,1.008,1.0053,1.0048,1.0034,1.0055,0.9983,0.9981,0.998,0.997,0.9967,0.9964,0,0,0,0,0,1.0179,1.0159,1.0161,1.0156,1.0127,1.0105,1.0101,1.0096,1.0104,1.0093,1.0084,1.0086,1.0039,1.005,1.0044,1.003,0.9984,0.9982,0.998,0.9971,0.9968,0.9964,0,0,0,0,0,0,1.0173,1.0157,1.0159,1.0134,1.0121,1.0106,1.0092,1.0093,1.0077,1.0078,1.0072,1.0068,1.0042,1.0034,1.0047,1.0001,1.0012,1.0009,1.0007,1.0004,1.0001,1.0003,1.0053,0,0,0,0,0,1.0169,1.0154,1.014,1.012,1.0113,1.0104,1.0094,1.0091,1.0077,1.0072,1.0061,1.0046,1.0027,1.0016,0.9998,0.9969,0.9964,0.9956,0.9953,0.9951,0.9948,0.9929,0.9924,0.9972,0.9972,0.9972,0,0,1.0161,1.015,1.014,1.0118,1.0108,1.009,1.0099,1.0081,1.0067,1.0068,1.0043,1.0035,1.0018,0.999,0.9977,0.9982,0.9933,0.9949,0.9947,0.9945,0.9926,0.9922,0.9918,0.9971,0.9971,0.9971,0,0,1.0135,1.0127,1.0107,1.0097,1.0081,1.0075,1.007,1.0054,1.0049,1.0024,1.0024,1.0007,0.9976,0.9963,0.9953,0.9921,0.9921,0.9916,0.99,0.9882,0.9878,0.9875,0.9861,0.9856,0.9913,0.9913,0.9913,0,1.0126,1.0101,1.0097,1.0078,1.0067,1.0068,1.0047,1.0037,1.0016,1.0008,1.0014,0.9974,0.9963,0.9931,0.9923,0.9915,0.9907,0.9917,0.9879,0.9876,0.9873,0.9859,0.9854,0.9912,0.9912,0.9912,0.9912,0,1.0089,1.0071,1.0057,1.0037,1.0025,1.0005,0.9997,0.9984,0.9983,0.9975,0.9948,0.9935,0.9914,0.9906,0.9904,0.9873,0.9876,0.9881,0.9891,0.9867,0.9854,0.9849,0.9911,0.9911,0.9911,0.9912,0,0,1.0059,1.0037,1.0031,1.0021,1.0003,0.9988,0.9968,0.9947,0.9936,0.9921,0.9902,0.9875,0.9879,0.9867,0.9864,0.9848,0.982,0.9854,0.9854,0.9846,0.9781,0.9776,0.977,0.9821,0.982,0.9819,0.9782,0,1.003,0.9994,0.999,0.9957,0.9939,0.9939,0.9921,0.9907,0.9899,0.9881,0.9872,0.9853,0.9861,0.9853,0.9838,0.9827,0.9807,0.983,0.98,0.9799,0.9802,0.9764,0.9759,0.9724,0.9777,0.9776,0.9776,0,0.9992,0.9976,0.9941,0.9924,0.9916,0.9899,0.9879,0.9863,0.9846,0.9842,0.9828,0.9826,0.9802,0.9815,0.9781,0.9796,0.9784,0.9777,0.9775,0.977,0.9784,0.9756,0.9713,0.9707,0.9768,0.9769,0.9769,0,0.997,0.994,0.9915,0.9906,0.9886,0.9874,0.9865,0.9849,0.9836,0.9819,0.981,0.9789,0.9777,0.9761,0.9752,0.9763,0.9718,0.9731,0.9711,0.9711,0.97,0.97,0.9652,0.9696,0.9696,0.9696,0.9696,0,0.9937,0.9915,0.9905,0.9889,0.9863,0.9858,0.9833,0.9824,0.9809,0.979,0.979,0.9772,0.9763,0.9743,0.9737,0.9708,0.9703,0.9697,0.9695,0.9695,0.9696,0.9686,0.9687,0.9695,0.9695,0.9695,0.9696,0,0.9908,0.9901,0.9873,0.9855,0.985,0.9832,0.9817,0.98,0.9793,0.9768,0.9762,0.975,0.9726,0.9717,0.9688,0.9683,0.9649,0.965,0.9654,0.9653,0.9633,0.9634,0.9575,0.9565,0.9618,0.9618,0.9617,0,0.9887,0.987,0.985,0.9838,0.9828,0.9808,0.9795,0.9789,0.9775,0.9753,0.9739,0.9715,0.9696,0.9658,0.9645,0.9622,0.9621,0.9602,0.9617,0.9617,0.9617,0.9617,0.9614,0.9598,0.9598,0.9597,0.9597,0,0.9848,0.9845,0.9826,0.9806,0.979,0.9773,0.9757,0.9747,0.9737,0.9721,0.9697,0.9682,0.9652,0.9628,0.9604,0.9593,0.9592,0.9592,0.9586,0.9585,0.9587,0.9583,0.9644,0.9593,0.9594,0.9594,0.9594,0.9594,0.9821,0.9804,0.9788,0.9766,0.9753,0.9738,0.9721,0.9711,0.9691,0.9666,0.9663,0.9636,0.9618,0.9586,0.9573,0.9551,0.9556,0.9547,0.9545,0.9542,0.9539,0.9593,0.9547,0.9547,0.9547,0.9547,0.9547,0,0.978,0.9769,0.9749,0.9726,0.9708,0.9711,0.9693,0.9677,0.9654,0.9637,0.9618,0.9588,0.9564,0.9549,0.9525,0.9509,0.9508,0.9503,0.9502,0.9499,0.9538,0.9544,0.9504,0.9504,0.9504,0.9504,0.9504,0.9504,0.9756,0.9728,0.9722,0.9687,0.9676,0.965,0.9639,0.9623,0.9609,0.9577,0.9557,0.9548,0.9531,0.9504,0.9481,0.9477,0.9467,0.946,0.9456,0.9492,0.9497,0.9501,0.9507,0.9459,0.9459,0.9419,0.9419,0.9418]}]]